TimeEDT,TemperatureF,Dew PointF,Humidity,Sea Level PressureIn,VisibilityMPH,Wind Direction,Wind SpeedMPH,Gust SpeedMPH,PrecipitationIn,Events,Conditions,WindDirDegrees,DateUTC
12:51 AM,59.0,53.1,81,30.04,10.0,SW,8.1,-,N/A,,Partly Cloudy,220,2013-07-29 04:51:00
1:51 AM,57.9,52.0,81,30.05,10.0,SSW,8.1,-,N/A,,Partly Cloudy,200,2013-07-29 05:51:00
2:51 AM,57.0,51.1,81,30.05,10.0,SW,8.1,-,N/A,,Scattered Clouds,220,2013-07-29 06:51:00
3:51 AM,57.0,52.0,83,30.05,10.0,SW,5.8,-,N/A,,Mostly Cloudy,220,2013-07-29 07:51:00
4:51 AM,55.9,52.0,87,30.06,10.0,SSW,6.9,-,N/A,,Mostly Cloudy,200,2013-07-29 08:51:00
5:51 AM,57.0,50.0,77,30.06,10.0,SSW,5.8,-,N/A,,Mostly Cloudy,210,2013-07-29 09:51:00
6:51 AM,57.0,50.0,77,30.08,10.0,SSW,4.6,-,N/A,,Mostly Cloudy,200,2013-07-29 10:51:00
7:51 AM,60.1,52.0,75,30.08,10.0,South,9.2,-,N/A,,Scattered Clouds,190,2013-07-29 11:51:00
8:51 AM,63.0,53.1,70,30.09,10.0,WSW,9.2,-,N/A,,Partly Cloudy,240,2013-07-29 12:51:00
9:51 AM,66.9,52.0,59,30.10,10.0,West,10.4,-,N/A,,Partly Cloudy,260,2013-07-29 13:51:00
10:51 AM,70.0,52.0,53,30.10,10.0,WSW,16.1,21.9,N/A,,Partly Cloudy,240,2013-07-29 14:51:00
11:51 AM,70.0,52.0,53,30.11,10.0,WSW,15.0,-,N/A,,Overcast,250,2013-07-29 15:51:00
12:51 PM,69.1,52.0,54,30.13,10.0,West,13.8,-,N/A,,Overcast,260,2013-07-29 16:51:00
1:51 PM,66.9,53.1,61,30.14,10.0,West,11.5,-,N/A,,Overcast,260,2013-07-29 17:51:00
2:51 PM,70.0,55.0,59,30.14,10.0,WSW,10.4,-,N/A,,Overcast,240,2013-07-29 18:51:00
3:51 PM,69.1,55.0,61,30.14,10.0,WSW,6.9,-,N/A,,Overcast,250,2013-07-29 19:51:00
4:51 PM,70.0,55.0,59,30.15,10.0,WSW,6.9,-,N/A,,Overcast,250,2013-07-29 20:51:00
5:51 PM,69.1,57.0,65,30.16,10.0,NW,5.8,-,N/A,,Mostly Cloudy,310,2013-07-29 21:51:00
6:51 PM,69.1,57.0,65,30.16,10.0,West,4.6,-,N/A,,Mostly Cloudy,260,2013-07-29 22:51:00
7:51 PM,69.1,57.0,65,30.17,10.0,WNW,6.9,-,N/A,,Scattered Clouds,300,2013-07-29 23:51:00
8:51 PM,66.9,55.9,68,30.18,10.0,WNW,4.6,-,N/A,,Scattered Clouds,300,2013-07-30 00:51:00
9:51 PM,64.9,57.0,75,30.19,10.0,NNW,3.5,-,N/A,,Scattered Clouds,330,2013-07-30 01:51:00
10:51 PM,63.0,57.0,81,30.20,10.0,Calm,Calm,-,N/A,,Scattered Clouds,0,2013-07-30 02:51:00
11:51 PM,62.1,57.0,84,30.21,10.0,Calm,Calm,-,N/A,,Scattered Clouds,0,2013-07-30 03:51:00